Wind_Speed
104 103 98 91 83 77 74 70 67 70 71 70 69 67 65 65 64 61 63 61 58 59 60 59 60 59 60 60 59 59 57 58 57 54 53 52 51 49 50 50 48 49 47 45 45 45 45 46 48 50 51 52 53 53 54 53 51 50 51 51 49 49 49 48 49 50 49 48 47 46 45 45 44 43 42 43 43 43 43 42 42 41 39 36 35 34
108 107 98 89 84 82 81 76 75 77 75 73 70 68 66 65 64 63 65 61 57 61 64 63 62 60 60 59 58 57 55 54 53 49 48 48 47 45 46 46 45 44 41 39 42 42 43 44 46 48 49 50 51 52 53 52 51 51 51 50 50 50 50 50 51 51 49 49 48 47 47 47 46 46 45 46 46 46 46 44 43 40 37 36 36 35
111 106 96 89 88 88 85 80 79 79 78 76 71 68 66 63 65 65 63 60 57 63 66 63 61 60 60 60 58 56 53 52 50 47 45 45 43 42 43 42 41 40 37 36 39 39 41 43 44 45 46 47 48 49 50 49 49 49 49 50 51 52 52 52 51 50 49 48 48 47 47 47 46 46 46 46 46 47 46 45 42 38 35 36 37 36
110 102 95 94 94 91 87 84 83 82 82 78 72 69 65 64 67 62 59 60 59 63 66 62 60 60 60 59 56 55 52 50 48 45 44 43 41 40 39 38 37 36 33 33 35 35 37 39 41 43 44 45 46 47 47 46 45 45 47 49 51 52 52 52 50 49 48 48 47 46 46 45 45 45 46 45 45 45 44 44 42 37 35 36 36 34
107 101 99 100 98 94 90 88 86 84 83 78 72 70 66 65 66 60 62 64 61 65 67 61 59 58 58 58 55 53 51 48 45 42 41 40 38 37 36 35 33 32 30 31 32 33 34 36 38 40 41 42 43 45 45 44 44 46 48 49 49 49 49 49 48 48 48 47 47 47 45 44 44 44 44 43 43 43 42 42 40 36 33 32 31 30
105 105 106 105 103 99 94 92 88 85 83 77 73 71 67 67 66 64 66 65 63 66 66 59 57 56 56 56 54 52 48 45 42 40 38 37 35 34 34 33 31 30 31 32 32 33 34 36 37 37 38 39 40 41 41 41 44 47 47 46 46 46 46 46 46 46 46 45 45 44 42 40 40 40 39 39 39 39 39 38 36 31 25 24 27 28
103 109 111 109 106 102 97 93 89 86 83 78 76 73 69 69 68 66 66 64 63 64 63 59 55 55 56 55 53 50 45 42 40 38 37 35 34 32 32 31 29 30 32 32 32 33 34 34 34 34 33 35 36 36 37 39 42 44 44 44 46 45 45 44 44 45 44 43 42 41 38 35 34 33 33 33 32 33 33 30 27 23 17 18 24 24
102 111 114 111 108 104 99 94 89 88 84 78 77 75 71 70 68 67 67 65 64 65 65 61 56 56 56 53 52 48 43 42 40 37 36 34 33 31 30 30 29 30 32 31 31 33 35 34 33 32 30 31 32 33 35 38 40 40 39 42 44 44 44 44 43 43 42 41 40 38 36 34 31 27 27 27 24 26 26 21 20 20 20 23 28 26
101 111 114 111 109 105 100 94 90 90 84 79 79 77 73 72 71 70 69 65 65 67 66 61 57 55 53 52 52 47 42 41 39 36 35 33 33 32 32 31 29 30 30 30 30 33 36 35 33 31 30 30 30 30 33 36 37 37 37 40 41 41 41 42 44 44 44 43 39 35 36 34 29 26 25 23 20 21 21 19 20 23 25 27 31 31
100 108 111 111 110 105 99 95 93 91 85 81 83 79 76 76 74 72 70 67 69 70 66 61 56 53 52 53 51 45 42 41 39 37 36 35 34 34 33 31 30 29 29 30 30 32 35 36 34 32 32 31 29 30 32 33 33 33 35 37 38 38 38 40 43 45 46 45 39 36 35 34 30 28 26 24 21 21 21 21 24 26 26 29 31 32
100 106 109 111 110 105 100 97 94 91 87 86 86 83 80 79 76 73 72 73 73 69 64 59 55 53 54 54 49 46 44 42 41 40 38 37 36 35 34 31 30 30 29 30 31 31 33 35 33 33 34 32 30 30 32 32 30 30 32 35 37 37 36 38 41 44 46 45 42 38 36 34 31 27 25 25 23 22 22 25 29 30 30 31 30 30
99 103 107 110 110 107 103 99 96 93 92 92 89 86 83 81 79 77 77 76 71 65 61 58 55 55 55 52 50 48 46 43 43 43 40 37 36 35 34 32 31 31 30 30 31 30 32 34 34 35 36 32 31 32 33 32 29 28 30 33 34 35 36 37 39 41 44 44 43 41 37 34 31 25 23 25 23 24 26 29 32 33 33 34 32 30
94 98 104 109 110 108 105 102 101 99 97 95 91 88 86 84 82 79 76 71 65 62 61 58 56 56 54 53 52 50 47 45 44 42 39 37 36 36 35 33 32 31 29 30 30 29 32 35 35 37 35 32 33 35 35 32 29 29 30 31 32 33 35 37 37 38 41 43 43 42 38 34 33 30 26 25 24 27 31 34 34 35 35 35 34 31
91 96 103 107 109 109 108 107 104 100 98 95 90 87 86 84 80 75 70 66 64 65 62 59 58 57 55 54 54 50 47 45 44 40 39 39 38 37 36 34 32 31 30 29 29 30 33 34 35 36 34 32 35 37 36 34 31 30 31 31 31 32 34 35 36 36 38 41 43 43 39 34 33 33 31 28 26 28 33 35 33 32 33 33 33 32
90 96 101 105 107 109 110 109 103 98 96 92 86 85 85 81 75 71 69 68 67 66 63 62 61 58 56 54 53 50 47 45 44 41 41 41 39 38 36 34 31 31 30 29 29 30 32 33 33 33 32 33 36 38 37 36 33 32 32 32 30 30 32 33 34 35 37 39 41 42 40 37 34 33 33 31 29 29 32 33 31 29 30 30 31 32
89 94 98 103 107 108 110 108 101 99 97 91 86 87 87 82 78 77 76 74 71 69 67 64 60 57 55 53 52 49 45 45 46 44 43 42 39 38 36 33 32 31 31 30 30 31 32 31 30 29 30 34 36 37 36 35 34 34 33 32 30 30 31 32 32 33 35 37 40 41 40 40 37 35 33 33 32 31 32 32 31 29 28 29 30 32
86 91 96 103 107 108 109 106 101 100 97 91 89 91 89 85 83 83 80 77 73 71 68 63 60 58 56 55 53 48 46 50 51 47 44 42 40 38 36 35 34 33 32 33 32 31 30 28 27 27 30 33 34 34 34 34 34 34 33 31 30 31 32 31 30 32 34 36 38 39 38 38 38 36 34 33 32 32 32 33 33 31 29 29 30 34
85 90 95 102 106 107 108 106 103 101 97 92 91 92 91 89 87 85 81 77 74 72 68 63 60 59 57 55 53 50 51 55 52 47 44 43 41 39 38 37 35 34 34 34 32 30 29 28 27 28 29 31 31 31 32 33 33 32 32 30 30 32 31 30 30 32 34 35 36 37 36 36 37 37 35 34 33 32 33 33 33 32 32 31 33 36
85 90 95 101 104 106 108 107 106 104 99 95 94 95 95 93 88 84 80 76 73 71 67 62 61 61 58 56 54 53 55 55 51 47 45 44 42 40 40 38 36 35 34 32 32 31 30 30 29 28 29 29 29 29 30 30 30 31 30 30 31 32 30 29 30 32 34 35 35 36 37 38 38 36 36 36 34 33 32 31 31 32 32 32 34 36
84 89 94 100 104 107 109 108 106 103 99 98 98 98 98 94 87 83 78 74 73 70 66 63 63 63 60 57 55 56 57 55 52 49 47 45 43 42 41 39 37 36 33 31 33 33 31 30 28 28 27 26 26 27 27 28 29 29 28 30 31 31 29 28 29 30 33 34 35 36 37 40 39 35 34 35 35 35 33 31 31 32 32 33 35 37
83 88 93 99 105 109 110 107 103 100 98 98 97 96 96 92 86 83 80 77 75 71 68 66 65 64 62 59 57 57 58 56 53 51 48 47 45 43 42 40 39 37 35 35 36 33 31 29 27 27 26 26 26 26 26 28 28 27 27 30 31 29 27 27 28 30 32 33 34 36 37 39 39 37 35 34 35 35 35 35 34 34 35 35 37 39
81 86 92 98 105 108 107 104 102 100 98 96 94 93 92 89 85 84 81 79 76 73 72 69 67 67 66 62 60 60 60 58 54 52 50 48 46 44 42 40 40 39 38 38 36 32 29 28 27 27 27 27 26 26 27 27 26 25 27 30 30 28 26 26 29 30 29 29 33 35 35 36 37 39 39 37 36 35 35 36 36 35 37 38 38 41
79 84 89 95 101 103 104 105 105 102 100 97 96 94 91 88 86 84 82 79 77 76 74 71 70 70 67 63 62 62 62 59 54 52 50 48 46 44 42 42 42 41 39 37 34 31 30 28 28 28 28 28 27 26 27 26 25 26 28 29 29 28 27 28 30 29 26 27 31 34 34 34 35 38 40 40 39 36 35 35 35 34 36 38 39 42
80 84 87 92 100 104 107 108 107 106 103 101 98 94 90 87 86 85 84 81 79 77 75 73 72 70 66 64 63 63 62 58 54 52 51 48 46 44 43 43 42 41 39 36 34 32 31 29 29 29 29 28 27 27 26 25 25 26 27 28 28 28 28 29 29 28 28 29 32 33 34 34 34 36 37 39 39 37 35 36 35 34 35 38 41 44
82 85 88 94 103 109 112 112 110 108 104 99 95 90 87 86 85 86 85 82 80 78 75 74 72 69 67 67 65 64 62 58 55 54 51 48 46 45 44 43 42 41 39 36 34 33 32 31 31 31 30 29 28 27 25 24 24 25 26 27 28 28 29 28 27 28 31 33 34 35 35 34 36 37 37 38 37 37 37 37 36 36 38 40 43 46
82 86 90 97 103 107 109 109 107 102 97 94 92 88 86 85 84 83 82 80 80 78 75 74 73 70 70 69 66 64 62 58 56 53 51 49 47 46 45 44 43 41 39 35 34 33 33 33 32 31 30 29 29 27 25 25 24 24 25 26 28 28 28 27 27 28 31 34 36 37 37 36 36 38 39 40 39 38 38 38 36 39 43 44 44 45
81 86 90 93 98 100 100 100 98 94 90 89 88 86 85 84 82 82 80 78 77 75 75 76 74 71 71 70 67 65 62 59 56 53 50 49 48 47 46 45 44 42 38 36 34 34 34 33 33 32 31 30 29 27 26 26 25 24 24 26 27 28 27 26 27 29 31 33 34 37 39 40 39 38 38 40 42 40 39 40 40 42 44 45 44 43
79 83 85 88 93 98 99 99 98 94 91 90 88 86 85 83 82 82 79 76 74 72 73 74 72 71 72 71 68 66 62 59 57 54 52 50 49 48 47 46 44 42 39 36 35 35 34 34 33 32 31 31 29 28 27 26 25 24 24 25 26 26 26 25 27 29 30 31 33 35 38 40 42 41 39 39 41 42 40 41 43 45 45 44 43 43
76 77 79 84 91 98 101 102 100 96 94 92 90 88 86 83 81 79 77 75 74 73 72 71 70 70 70 69 67 64 61 58 55 53 52 51 50 49 48 46 44 41 40 38 37 36 35 34 33 32 32 31 29 28 27 26 25 24 24 25 25 25 25 26 27 29 29 29 31 34 36 38 40 42 41 40 41 42 42 42 43 45 45 45 45 44
74 75 77 82 90 97 101 102 100 98 95 92 90 88 86 83 80 78 76 76 76 75 73 71 69 67 66 65 62 59 57 56 54 53 52 52 51 50 48 46 44 42 41 39 38 37 36 34 33 33 32 31 30 28 27 26 26 25 25 25 25 25 25 27 28 28 28 29 30 33 35 36 37 39 41 42 42 42 43 45 45 46 46 46 46 45
74 75 77 80 87 94 97 98 98 96 93 91 89 87 85 82 79 77 75 74 73 73 72 70 67 65 63 61 58 56 55 54 53 53 53 52 51 50 49 47 45 44 42 40 39 38 36 35 34 34 32 31 30 28 27 27 27 27 27 26 26 25 26 28 29 28 28 28 29 31 33 34 36 37 39 42 44 44 44 45 45 46 45 45 44 44
72 73 75 79 84 90 93 94 94 94 92 90 88 86 83 79 76 73 71 71 71 72 72 70 67 66 64 61 58 56 54 53 54 54 53 53 53 51 50 49 47 45 43 42 41 39 37 37 35 34 33 32 30 29 28 28 29 29 29 27 27 27 27 29 29 28 27 27 28 31 33 34 35 36 38 40 43 44 45 45 45 44 44 43 42 42
69 71 74 77 82 87 91 93 94 93 91 89 87 85 82 79 76 73 72 72 73 73 72 70 68 68 66 63 59 57 55 54 54 54 55 54 54 53 52 50 49 47 45 43 41 39 38 37 36 35 34 32 31 30 29 30 31 31 30 28 28 28 29 29 29 28 27 26 27 30 33 36 37 38 38 40 41 43 43 43 43 43 43 43 44 45
68 71 73 75 79 84 89 92 94 93 89 86 84 83 81 78 76 74 74 74 73 72 70 68 67 68 66 63 60 58 56 55 55 55 56 55 55 54 54 52 50 49 46 44 41 39 39 38 37 36 34 33 32 32 32 33 33 32 30 29 30 29 29 29 29 29 27 27 27 29 33 36 39 40 40 40 41 42 43 42 41 41 42 44 46 48
68 71 72 74 77 82 87 91 92 91 88 84 81 80 79 78 77 76 76 75 74 72 71 69 68 67 65 62 61 59 56 54 54 56 56 56 56 55 55 54 52 50 47 44 42 41 40 39 38 37 36 35 34 35 35 35 34 32 30 30 30 30 30 29 29 29 28 27 27 29 31 34 37 39 41 41 41 43 44 44 43 43 44 46 48 49
67 69 70 71 74 78 84 88 88 88 87 84 81 79 78 78 78 78 77 76 75 73 71 70 69 67 65 62 60 59 57 54 54 55 56 56 57 56 55 55 53 51 48 45 44 42 41 40 40 39 38 37 37 37 37 35 34 32 31 31 31 30 30 29 28 28 28 28 27 27 29 32 35 37 38 40 41 43 45 46 46 46 47 49 50 51
65 67 67 67 68 72 77 82 84 86 86 85 81 79 78 77 77 77 76 74 73 70 68 67 66 65 64 63 61 60 58 54 52 54 55 55 56 56 56 55 53 51 49 47 45 43 42 42 41 40 39 40 40 39 37 36 35 34 32 31 30 29 29 29 28 28 29 29 28 26 26 29 32 34 36 37 38 40 43 44 45 46 48 50 51 53
62 64 64 63 63 65 70 76 81 85 86 85 82 79 78 77 76 75 73 71 69 68 66 66 65 64 63 62 61 60 58 55 52 51 53 55 55 56 56 55 53 51 50 47 45 43 43 42 42 41 42 42 41 40 38 36 35 33 31 30 30 30 29 28 28 28 29 30 29 29 28 28 30 32 34 35 36 38 41 42 43 45 47 49 52 53
60 61 61 61 61 63 67 73 79 82 82 81 80 79 77 76 76 74 72 71 70 69 67 66 64 63 62 61 59 58 57 56 54 52 51 54 57 57 56 55 53 52 50 47 46 44 43 43 44 44 45 44 43 41 38 36 34 32 31 31 32 31 29 28 28 29 29 30 31 31 31 31 31 32 34 35 37 39 41 43 45 46 48 50 52 54
58 60 60 60 60 61 63 69 73 76 78 77 78 79 78 77 77 75 73 72 70 68 67 65 64 63 61 59 57 56 56 58 58 57 55 55 56 56 56 56 54 52 50 48 47 44 43 45 46 46 46 45 43 40 37 34 32 32 33 34 34 32 30 29 30 30 30 30 31 33 34 34 34 34 34 35 36 38 40 42 44 46 47 49 50 52
58 60 60 60 59 59 60 63 68 73 76 77 77 79 79 77 75 74 72 70 69 68 67 66 65 63 60 58 57 57 58 59 60 60 59 58 57 55 54 54 53 51 50 49 47 45 44 46 47 47 45 44 42 39 36 34 33 34 35 36 35 33 32 31 32 31 31 30 31 32 33 35 36 36 36 36 36 38 39 41 43 45 46 47 48 49
56 58 58 58 57 57 57 60 64 70 75 77 78 78 78 77 74 73 72 70 69 68 67 66 65 62 58 57 59 60 61 60 60 59 57 57 57 55 52 50 50 51 50 49 47 45 45 47 47 46 45 43 41 39 36 35 36 37 37 36 36 35 34 33 33 33 32 32 33 33 33 34 35 35 36 37 38 39 40 40 42 43 44 46 47 47
54 54 55 56 56 54 55 57 61 66 70 74 76 76 75 74 73 72 72 70 69 68 67 65 63 61 57 57 59 61 61 60 59 59 57 56 57 56 53 51 50 49 49 48 47 46 46 47 47 46 45 43 41 39 37 37 37 38 38 37 37 36 35 34 34 34 34 34 35 35 36 36 36 36 37 37 38 39 39 40 40 41 41 43 44 45
53 53 54 54 54 53 54 55 56 59 62 66 69 70 71 71 72 73 73 71 69 68 65 62 60 59 58 59 61 61 61 60 59 59 59 58 57 56 54 53 51 49 47 45 45 46 47 47 47 46 45 43 41 39 38 38 38 38 38 37 37 37 36 35 35 35 35 34 35 36 36 37 38 38 37 37 37 38 39 40 40 40 40 40 41 42
54 54 53 53 52 52 52 51 50 52 54 57 61 64 66 69 71 72 71 70 69 67 65 63 61 59 58 59 61 60 60 60 59 59 60 59 58 57 55 53 51 49 47 45 44 45 47 48 47 47 45 43 41 40 39 39 38 38 38 38 38 38 37 37 37 36 35 35 35 35 36 36 37 37 37 37 37 38 40 41 42 42 41 41 41 41
54 53 52 52 52 51 51 50 49 50 52 54 56 58 61 64 66 67 67 67 66 65 65 64 62 59 57 57 58 58 58 58 58 58 59 59 59 57 56 54 52 51 49 47 45 45 47 47 47 46 45 43 42 41 40 39 39 38 39 38 38 38 38 38 38 37 37 36 35 35 36 36 36 36 37 38 38 40 40 41 42 42 43 43 43 43
53 52 51 51 52 52 51 51 52 53 53 53 54 55 57 58 60 61 62 62 62 62 62 61 61 60 58 56 56 57 57 58 57 57 57 57 58 57 55 54 54 53 52 50 48 47 47 47 46 45 45 44 42 41 40 40 39 39 39 39 39 39 39 39 39 39 38 37 37 37 37 37 37 38 39 40 41 42 42 42 43 43 44 45 45 46
53 53 52 51 52 53 53 53 53 53 53 53 55 55 55 56 57 58 59 59 59 59 58 58 58 58 58 58 59 59 58 58 58 58 57 57 57 57 56 55 54 54 53 51 50 49 49 48 47 46 45 44 43 42 41 41 40 40 40 40 40 40 40 41 41 40 40 39 39 39 38 38 39 39 41 43 44 44 45 46 46 46 47 47 48 49
52 54 53 51 52 54 55 54 55 55 54 55 55 55 55 56 57 57 58 58 58 57 57 57 57 57 57 58 59 59 59 59 59 58 58 57 57 56 56 55 54 53 53 52 50 50 49 49 48 47 46 45 44 43 43 42 41 41 41 41 42 42 42 42 41 41 41 41 42 41 41 40 40 40 42 43 45 47 48 49 49 49 50 50 50 50
51 54 55 54 52 53 55 56 56 57 57 57 58 58 57 57 58 58 58 58 58 58 58 57 57 58 58 58 58 59 59 59 59 58 58 57 56 55 55 54 54 53 52 51 50 49 49 48 48 47 47 46 45 44 44 43 43 43 43 43 43 43 43 42 42 42 42 43 43 43 43 43 43 43 43 44 46 48 49 50 51 52 53 53 53 53
49 52 54 56 55 53 53 54 56 58 59 59 60 61 61 60 60 60 59 59 59 58 58 58 58 58 58 58 58 59 59 59 59 58 57 56 55 55 54 54 53 52 52 51 50 50 49 49 49 48 47 47 46 46 45 45 45 45 44 44 44 44 44 44 43 43 43 43 44 44 44 44 44 44 45 45 46 47 48 49 50 52 53 54 54 55
Wind_Direction
228 228 226 225 225 225 226 224 221 221 222 222 223 223 222 223 223 222 223 221 221 225 225 223 224 224 227 228 229 231 230 233 235 235 237 239 240 240 242 243 243 245 245 245 247 247 247 248 248 249 248 248 249 248 249 248 248 248 248 249 249 249 249 250 251 251 253 254 255 257 258 259 260 261 261 263 265 267 270 273 276 281 286 289 292 295
226 227 225 223 223 223 223 221 218 219 220 221 221 221 221 221 221 220 222 219 217 223 224 222 223 224 226 227 229 230 230 232 234 234 235 237 238 238 240 242 243 245 245 244 245 246 247 248 248 248 249 249 250 250 250 249 249 250 250 251 251 251 250 250 251 251 253 254 256 257 258 259 261 262 263 264 266 269 272 275 278 283 287 290 294 295
224 225 223 223 222 221 221 219 218 217 219 220 219 220 220 220 221 220 221 219 215 221 224 221 222 223 225 227 227 230 230 231 233 233 234 236 237 238 239 241 242 243 243 243 244 245 246 248 248 248 249 249 250 251 250 250 251 252 253 253 252 251 251 251 252 253 255 256 256 257 258 260 261 263 264 265 267 269 272 276 280 284 288 291 293 293
222 222 222 222 222 221 220 219 218 217 218 219 218 219 219 218 221 219 219 219 215 220 224 221 220 221 224 227 227 228 229 230 232 232 232 233 233 234 235 236 238 239 240 240 242 243 245 246 247 247 248 249 250 251 251 251 252 252 252 251 251 251 251 253 254 254 256 256 257 257 258 260 261 262 264 266 268 270 272 275 279 284 288 290 291 289
219 219 220 221 221 220 219 218 218 217 217 217 216 218 217 218 220 217 217 218 213 217 222 219 218 220 222 225 226 226 227 228 229 228 228 229 229 230 233 233 235 236 236 238 239 241 242 243 244 244 245 247 248 249 250 251 252 251 250 250 251 251 252 253 253 254 255 256 257 257 257 259 261 262 264 266 268 270 272 274 278 283 287 288 287 285
214 216 217 218 219 218 217 217 217 216 217 215 215 217 216 217 217 215 215 216 213 216 220 218 216 218 220 222 223 223 223 224 224 224 225 227 228 228 232 233 233 234 234 236 238 239 241 242 243 244 245 246 248 250 251 251 251 250 250 251 251 251 251 251 252 252 253 254 254 255 256 258 261 263 264 264 266 268 270 273 278 281 280 282 288 289
209 213 216 216 217 217 216 216 215 216 216 213 213 215 215 215 215 214 215 214 213 214 218 217 212 214 217 218 220 219 218 219 219 221 223 225 228 228 231 233 232 235 236 237 241 244 245 245 247 247 248 249 250 251 251 251 250 250 251 251 250 249 250 250 251 251 251 250 249 250 253 256 259 262 263 262 262 264 266 267 269 267 253 256 273 276
206 209 213 214 215 215 214 214 213 214 215 212 212 214 213 214 214 213 214 212 211 211 214 214 208 210 214 215 218 216 213 216 217 219 223 226 230 230 232 234 234 237 239 239 241 246 249 250 250 251 251 251 251 251 251 251 251 252 251 251 250 249 249 250 249 249 248 246 245 247 250 252 255 258 260 261 260 260 259 245 237 240 231 237 250 251
205 207 209 211 213 214 213 212 212 213 213 210 211 212 212 212 211 211 212 209 209 209 211 212 207 207 213 215 217 215 210 215 217 219 225 230 233 235 235 236 237 240 243 243 242 245 250 252 251 251 252 252 252 251 251 252 252 252 251 252 251 250 248 248 248 246 245 244 244 245 247 248 248 251 258 260 254 252 251 230 223 233 232 235 243 245
205 206 206 209 211 212 212 211 211 211 211 209 209 210 210 211 210 209 210 207 207 209 208 210 207 205 212 217 217 214 210 214 218 221 228 233 236 239 238 238 240 243 245 247 246 244 247 250 251 252 252 252 253 252 252 252 252 252 252 253 252 250 247 246 245 245 244 244 243 244 246 245 244 249 256 256 246 239 239 230 225 231 235 237 243 249
205 204 204 206 209 210 211 210 210 210 209 208 208 208 209 210 209 207 207 206 206 208 206 208 207 205 211 217 217 215 213 213 218 224 229 234 237 241 241 241 242 244 245 247 248 247 248 251 253 253 252 252 253 253 253 254 253 254 254 254 253 250 247 245 244 244 243 243 243 243 244 243 242 248 251 248 239 225 223 228 227 229 236 241 247 256
205 203 202 203 206 208 209 209 209 208 208 207 206 207 208 208 208 206 206 206 205 207 207 206 208 207 210 216 217 217 216 216 222 227 231 235 239 242 243 243 244 245 247 248 249 250 250 252 253 253 252 252 253 253 254 254 253 253 254 254 253 251 247 245 244 243 242 242 242 242 242 241 239 240 241 240 231 214 215 227 230 230 236 244 251 259
204 202 201 201 202 205 207 208 208 207 207 207 205 205 207 207 207 206 205 206 204 206 207 205 208 210 210 214 219 219 218 220 224 228 233 238 241 243 245 245 246 248 249 251 252 250 249 250 252 252 252 252 253 253 254 254 252 252 254 255 254 252 249 246 244 244 243 241 241 240 240 239 237 236 239 241 233 219 219 227 231 234 240 248 253 258
203 201 200 200 200 201 205 207 207 207 207 207 205 205 208 208 208 207 205 205 204 206 207 206 209 211 210 214 219 219 219 224 227 230 235 239 240 243 245 245 247 249 251 251 252 250 249 249 251 252 253 252 252 252 253 252 251 252 254 255 256 255 253 249 245 244 243 242 241 239 237 236 236 237 240 242 237 231 229 231 235 240 244 249 253 257
201 201 200 199 198 199 203 206 206 206 207 207 204 204 208 209 207 207 205 205 205 205 207 208 209 211 212 216 220 220 221 227 229 229 233 237 240 243 245 246 247 249 250 249 248 248 248 249 251 252 252 251 250 251 251 251 251 251 253 255 257 258 257 253 247 244 243 242 241 240 236 234 234 235 237 240 241 239 238 237 237 239 245 250 254 257
200 200 198 197 197 198 202 205 204 205 206 205 203 204 207 207 205 205 204 203 204 205 207 210 211 211 215 218 221 222 224 230 231 228 231 235 239 242 244 246 246 246 246 246 247 249 250 252 252 251 249 249 250 251 251 252 251 251 252 254 256 258 257 254 249 244 243 242 241 240 236 234 235 235 237 241 242 240 239 238 236 238 245 250 253 256
199 198 197 196 196 196 200 203 203 205 205 203 202 204 206 206 205 204 204 203 203 205 207 209 211 212 215 219 221 221 224 229 230 227 230 235 239 243 246 246 246 245 245 247 248 250 252 253 251 248 247 249 252 253 253 252 251 251 252 253 255 256 256 254 250 245 243 242 241 240 237 234 236 237 238 240 239 236 236 237 235 237 243 247 252 258
196 196 196 196 196 195 198 201 202 204 204 202 202 203 205 206 205 205 204 203 204 206 206 208 212 214 215 218 221 221 223 227 229 227 229 234 238 242 245 245 245 245 246 249 250 250 250 250 248 247 249 251 254 254 253 253 252 252 252 253 254 255 255 255 252 247 244 242 241 239 235 231 234 235 235 236 237 235 235 237 236 238 244 249 256 261
195 194 194 195 195 195 197 199 201 202 202 200 201 203 205 206 206 205 206 205 206 208 207 207 213 216 216 218 221 223 226 228 230 230 231 234 237 240 243 244 244 245 247 249 249 247 246 247 248 249 252 254 256 257 257 256 255 252 252 253 253 253 254 254 252 248 245 243 241 239 233 229 230 233 232 234 237 235 233 234 237 239 246 253 257 259
195 194 193 194 193 194 198 199 201 201 200 200 201 202 204 205 205 205 206 206 208 209 208 209 214 217 217 218 221 225 228 228 230 232 232 235 238 240 242 243 244 245 244 244 246 247 247 247 249 251 254 256 258 259 259 257 254 251 251 252 253 253 253 253 253 250 247 243 241 239 236 231 230 233 235 237 238 236 232 231 235 239 245 251 255 258
194 193 193 193 192 194 196 198 200 201 201 202 202 203 204 204 204 204 205 207 208 210 210 211 216 219 218 218 221 226 229 228 230 232 233 236 238 240 243 244 245 244 240 241 246 248 248 248 250 251 254 255 256 257 256 255 254 251 250 252 252 252 253 254 254 251 246 242 241 241 239 236 234 234 237 240 241 239 234 232 235 239 242 247 253 258
193 193 193 192 192 193 194 195 199 201 202 203 203 205 205 204 204 205 206 207 208 210 212 213 217 220 220 219 221 226 229 228 229 232 234 236 239 241 243 243 243 243 240 241 245 247 247 249 250 252 253 253 254 255 256 256 255 252 250 251 251 251 251 252 252 250 245 242 243 242 240 238 236 235 236 239 241 241 239 238 239 241 243 245 250 254
191 193 194 192 192 192 192 194 198 201 201 202 203 204 205 204 205 206 207 208 209 211 213 215 218 220 220 221 223 226 230 230 230 233 236 238 240 241 242 241 242 242 242 243 244 245 248 250 251 252 252 252 254 256 257 258 257 253 251 251 250 250 250 250 250 248 244 242 245 245 243 240 237 235 235 236 238 240 241 241 239 238 240 242 245 249
189 192 194 192 191 192 193 194 198 200 200 201 202 203 203 203 205 207 208 209 210 212 213 216 219 221 222 224 225 228 231 232 232 234 236 238 239 240 239 240 242 242 242 242 243 245 248 250 251 251 251 253 255 258 261 263 261 256 254 252 252 250 250 251 250 248 245 243 243 244 245 245 241 237 235 236 237 237 238 238 234 231 234 238 241 246
187 190 193 193 192 192 193 194 197 199 199 200 201 202 202 203 205 207 208 209 211 212 214 217 220 221 223 225 226 228 231 232 233 234 236 237 237 238 239 240 240 241 241 241 242 244 247 250 251 252 253 256 258 260 263 265 263 260 257 254 253 252 251 252 252 250 249 246 243 241 242 244 244 240 237 237 237 235 236 237 230 227 230 235 241 247
187 189 192 193 193 193 193 194 196 198 199 199 201 201 202 204 205 207 209 210 212 213 215 218 220 221 223 225 226 228 230 231 231 233 234 235 236 236 237 237 238 239 239 240 242 244 246 249 251 253 255 257 260 262 263 263 263 263 261 257 255 253 252 253 253 250 248 246 245 242 241 242 243 243 240 238 235 232 234 234 228 226 230 236 244 251
188 190 192 193 194 194 194 194 196 198 199 201 202 202 203 204 205 207 208 210 212 214 216 219 220 221 224 225 225 227 228 229 230 231 231 232 233 233 234 235 236 237 238 240 242 244 246 249 251 253 255 257 260 262 262 263 264 266 264 259 256 255 253 253 253 251 248 246 246 245 243 241 241 243 242 239 236 233 232 233 231 230 234 238 244 252
190 191 192 192 192 193 193 194 195 197 199 200 201 203 204 205 206 207 207 208 211 214 217 220 220 222 225 226 226 227 228 229 230 230 230 230 230 231 231 233 234 236 237 239 241 243 246 249 251 253 255 258 261 262 263 265 267 267 265 262 258 256 255 255 254 253 250 248 246 245 244 242 240 241 241 240 238 236 234 235 235 235 237 240 243 249
191 192 192 192 191 192 193 194 195 196 198 199 200 202 204 205 206 207 207 209 210 212 215 218 219 221 224 225 226 227 228 229 229 228 227 227 228 228 230 232 233 235 237 239 241 243 246 249 252 255 257 259 262 263 265 267 266 266 266 264 261 258 256 255 254 252 250 248 246 245 244 242 241 240 240 240 239 237 235 236 238 239 241 243 244 247
189 191 192 192 192 193 194 194 194 195 197 199 200 201 203 204 206 207 207 209 211 213 214 216 217 219 222 223 224 225 226 226 225 224 224 224 225 227 229 231 233 235 237 239 242 244 247 251 254 256 258 260 262 264 265 265 265 264 264 264 262 259 256 254 253 252 250 248 246 244 243 242 242 242 241 240 239 238 237 238 241 243 245 246 245 245
189 190 191 192 193 195 195 194 194 195 197 198 200 201 203 204 205 207 208 210 213 215 216 217 217 219 221 222 221 222 222 222 222 221 222 223 225 227 229 230 232 235 237 240 242 245 247 251 254 256 258 260 262 263 264 264 264 263 263 263 262 260 256 254 253 252 251 250 247 246 245 242 241 242 243 240 238 238 239 240 241 243 244 245 245 246
189 189 190 192 193 195 195 195 195 196 197 199 200 201 202 203 205 206 208 211 213 215 217 217 216 218 220 220 220 220 221 221 221 221 221 223 225 227 229 231 232 235 237 240 243 245 248 250 253 255 258 259 261 262 263 263 263 262 263 264 263 260 256 254 253 252 251 251 250 247 244 241 240 241 241 239 237 237 239 240 240 242 243 243 243 244
188 188 190 192 193 194 195 196 197 198 199 199 200 201 201 202 203 204 206 209 212 215 216 217 217 218 218 219 218 219 220 221 221 221 222 223 225 227 229 231 233 236 239 242 245 247 249 251 253 255 257 258 260 260 260 260 260 262 264 264 264 262 258 255 253 251 250 250 251 247 242 239 239 239 239 238 237 237 239 240 242 244 244 244 243 243
186 188 190 192 193 194 195 196 197 198 199 200 201 202 202 202 203 205 206 209 211 213 215 216 218 219 220 219 219 219 220 221 221 222 223 224 226 228 230 232 235 237 240 244 247 249 250 251 252 253 254 256 257 257 257 258 259 263 265 265 265 264 261 257 253 251 249 247 249 249 246 243 241 241 242 241 240 239 239 240 242 245 247 248 247 247
185 188 190 192 193 194 195 197 197 197 198 200 202 203 203 203 204 205 207 209 210 212 213 214 217 219 220 220 220 220 220 221 222 224 225 225 227 229 231 234 236 239 242 245 248 249 249 250 250 251 252 253 254 254 255 257 261 264 265 265 266 265 263 259 255 251 249 247 247 248 249 248 246 244 244 243 242 241 240 240 240 242 245 247 248 249
186 188 190 192 193 194 196 197 197 198 198 200 201 202 204 205 206 207 208 209 210 212 212 214 216 217 218 219 220 221 221 222 224 226 227 227 228 230 233 235 238 240 243 246 248 248 249 248 248 249 250 251 252 253 255 258 261 262 264 266 268 268 267 264 258 253 250 249 248 249 251 251 249 247 247 247 246 245 243 243 242 242 245 247 250 251
186 188 191 192 193 195 196 197 198 199 199 200 201 202 204 206 208 210 211 212 213 213 214 215 217 218 219 219 219 220 221 222 225 227 230 231 231 233 235 237 240 242 244 247 249 249 249 248 248 248 249 250 251 252 254 257 259 262 265 268 271 271 270 268 263 257 253 252 252 254 254 253 251 250 250 250 249 247 245 245 245 246 248 251 253 255
186 189 190 192 192 194 196 197 198 200 200 201 201 202 204 206 208 211 212 213 215 215 215 216 217 219 220 221 221 221 221 222 224 227 232 235 235 236 238 239 241 244 246 248 250 249 249 248 247 247 247 248 250 252 253 257 260 264 268 270 270 269 269 269 267 262 257 255 255 255 254 252 252 252 253 253 252 250 248 248 249 251 252 254 255 257
184 188 189 190 191 193 195 197 199 201 201 202 203 204 204 206 208 210 211 213 214 215 216 218 219 220 221 222 223 223 223 224 224 225 230 236 238 238 239 241 242 244 246 248 249 249 249 248 246 246 246 248 250 252 255 259 262 266 267 266 267 268 271 273 272 267 261 257 255 254 254 252 251 251 252 253 253 253 253 253 254 255 256 256 257 258
183 187 189 189 191 193 195 197 199 200 201 202 204 205 206 207 208 209 211 213 214 216 217 218 220 221 222 222 223 224 225 225 225 224 225 231 236 238 238 240 242 244 245 247 248 249 249 248 247 247 248 250 252 254 256 259 261 262 261 263 266 270 272 273 272 270 265 260 256 255 254 254 253 252 252 253 254 255 256 256 257 257 258 258 258 258
183 186 188 189 190 192 194 197 198 200 201 203 205 206 207 208 209 210 211 213 215 217 218 219 220 221 222 223 223 224 225 225 226 226 226 230 234 237 238 239 241 243 244 246 248 248 248 248 248 249 250 251 253 254 255 257 257 257 258 261 265 269 272 273 273 272 269 265 262 260 258 257 256 256 256 256 257 257 258 258 259 259 259 259 259 259
183 186 188 189 191 191 193 195 197 200 202 204 206 207 208 209 210 211 212 214 215 217 218 220 221 221 222 223 224 224 225 226 227 227 228 230 233 236 238 240 241 243 244 246 246 246 247 248 249 250 251 251 252 252 253 254 254 254 256 259 264 268 271 272 272 272 270 267 265 265 264 262 261 260 260 261 261 261 261 261 261 261 260 260 260 261
182 185 187 189 190 191 193 195 198 200 202 205 207 208 209 210 211 213 214 215 216 218 219 220 222 222 221 223 225 225 225 226 227 228 229 230 233 236 238 240 242 244 244 245 245 244 245 246 248 248 249 250 250 250 251 252 253 255 256 258 263 267 270 270 271 271 270 268 266 265 264 264 264 264 263 261 261 262 262 262 262 263 262 262 262 263
180 183 187 189 189 191 194 196 198 201 203 205 207 209 210 211 213 215 216 217 218 220 220 221 221 221 221 223 225 226 226 226 227 228 229 231 233 234 236 238 241 242 244 245 245 244 244 245 246 247 248 248 248 249 250 252 254 256 257 258 262 265 267 268 268 269 269 269 268 266 265 265 266 266 264 262 261 262 263 262 262 263 264 264 264 265
180 182 185 187 188 191 193 195 197 200 203 204 205 207 209 211 213 215 216 217 218 220 221 221 220 219 220 223 225 226 227 228 229 230 230 232 233 234 235 236 237 239 241 242 243 243 244 245 246 246 247 247 247 248 250 252 255 256 257 259 261 263 264 266 267 268 268 268 268 267 267 266 266 264 261 260 262 264 265 263 262 261 262 263 264 265
180 181 183 185 188 190 191 192 194 198 202 203 204 206 208 210 212 213 215 216 217 219 220 221 220 218 219 222 225 226 227 228 230 231 231 231 233 235 236 236 237 238 239 240 241 242 244 245 245 246 246 246 247 248 249 252 254 255 257 258 260 261 262 264 266 267 267 267 267 266 265 265 264 262 260 259 262 264 266 266 264 262 261 261 262 263
180 180 182 186 188 189 190 192 195 198 201 202 204 205 206 208 210 212 213 214 215 217 219 220 221 219 218 220 224 226 226 227 228 230 231 231 233 234 235 236 237 237 238 239 240 242 244 245 246 246 246 246 246 247 249 251 253 254 256 257 258 259 261 263 265 266 267 267 267 266 265 264 262 261 260 260 261 262 263 265 265 264 263 263 263 264
182 181 182 186 190 190 191 193 197 200 201 202 204 205 206 208 209 211 212 213 214 216 217 219 220 220 219 220 223 225 226 228 229 230 232 233 233 234 235 236 236 237 238 239 239 242 244 246 246 247 247 247 246 247 248 250 252 253 255 256 256 258 260 263 265 266 267 268 268 268 267 266 264 262 260 260 261 262 263 264 264 265 265 265 266 267
184 182 182 186 190 192 192 194 198 200 201 203 205 206 207 208 210 211 212 213 214 214 216 218 219 220 221 222 223 224 226 228 230 230 231 232 233 234 235 236 237 238 238 239 241 243 245 246 246 247 248 247 247 248 249 251 252 253 254 255 256 258 260 263 266 268 269 269 270 270 270 270 268 266 263 261 261 261 262 262 263 264 265 266 267 268
185 184 184 187 190 193 194 196 199 201 202 203 204 206 207 209 210 212 213 213 214 215 215 217 218 219 221 222 222 223 225 227 228 229 230 231 232 233 234 236 237 238 239 240 241 243 244 245 246 246 247 247 248 249 250 251 252 252 253 254 257 259 262 265 267 269 270 270 270 271 271 272 272 271 269 266 264 263 263 263 263 263 264 265 266 268
186 186 188 189 191 192 195 199 203 204 204 204 205 205 206 208 209 211 213 214 215 217 218 218 219 220 221 222 222 223 224 226 227 228 230 231 232 233 234 236 238 239 240 240 241 242 244 244 245 245 246 247 248 249 250 251 252 253 255 257 260 262 265 266 268 269 270 271 271 271 271 271 272 272 271 270 268 267 267 267 267 266 267 267 268 269
Height
10500 10502 10513 10531 10551 10565 10570 10579 10587 10588 10587 10591 10596 10602 10609 10614 10620 10627 10629 10634 10642 10643 10647 10652 10655 10658 10660 10665 10669 10673 10679 10683 10687 10693 10696 10700 10704 10707 10709 10712 10715 10717 10722 10727 10728 10731 10733 10735 10735 10735 10737 10738 10739 10741 10742 10745 10750 10753 10753 10755 10758 10759 10759 10761 10761 10761 10764 10766 10768 10769 10770 10770 10771 10772 10772 10773 10774 10774 10775 10776 10777 10778 10779 10779 10780 10780
10481 10487 10508 10534 10549 10552 10556 10565 10572 10573 10577 10583 10590 10596 10602 10608 10615 10619 10621 10629 10638 10637 10639 10644 10649 10655 10658 10662 10666 10670 10676 10680 10685 10690 10694 10697 10700 10704 10706 10708 10712 10714 10720 10724 10725 10726 10728 10729 10730 10730 10732 10733 10734 10735 10737 10741 10745 10747 10749 10751 10752 10752 10754 10755 10756 10757 10761 10763 10765 10766 10767 10767 10768 10769 10769 10770 10771 10771 10772 10773 10774 10775 10776 10777 10778 10778
10462 10480 10512 10531 10534 10536 10545 10555 10560 10565 10570 10576 10584 10590 10598 10606 10609 10612 10618 10627 10633 10630 10632 10640 10647 10652 10654 10657 10663 10667 10673 10678 10681 10687 10690 10693 10697 10701 10703 10705 10709 10712 10717 10720 10720 10722 10723 10724 10725 10726 10727 10728 10729 10730 10732 10737 10740 10743 10745 10744 10744 10746 10748 10750 10752 10755 10758 10759 10760 10762 10763 10764 10765 10765 10766 10766 10767 10768 10769 10770 10771 10773 10774 10775 10775 10775
10454 10486 10513 10518 10518 10527 10538 10545 10551 10557 10561 10568 10580 10587 10595 10600 10601 10610 10617 10622 10627 10626 10628 10637 10643 10648 10650 10654 10660 10665 10670 10674 10678 10684 10687 10690 10694 10697 10699 10702 10706 10709 10714 10716 10717 10718 10719 10719 10720 10721 10722 10724 10725 10725 10728 10733 10737 10739 10737 10736 10738 10741 10743 10745 10747 10750 10751 10752 10755 10757 10758 10759 10760 10760 10761 10763 10764 10765 10766 10767 10769 10770 10771 10772 10772 10772
10453 10485 10498 10498 10506 10518 10528 10535 10542 10549 10553 10565 10577 10583 10590 10595 10598 10608 10610 10612 10620 10619 10622 10632 10639 10644 10648 10652 10658 10662 10667 10672 10676 10680 10683 10686 10690 10693 10696 10700 10703 10707 10710 10711 10712 10713 10714 10714 10715 10716 10718 10719 10720 10722 10725 10730 10732 10731 10729 10731 10736 10738 10739 10740 10742 10744 10745 10747 10749 10750 10752 10753 10754 10755 10757 10759 10760 10761 10763 10764 10766 10768 10769 10769 10768 10769
10447 10469 10473 10478 10490 10502 10515 10524 10534 10543 10550 10563 10573 10577 10585 10589 10593 10599 10601 10606 10613 10615 10620 10630 10637 10642 10645 10648 10653 10659 10664 10669 10673 10677 10680 10683 10687 10691 10693 10697 10701 10703 10705 10706 10707 10709 10709 10710 10710 10712 10714 10716 10717 10720 10723 10725 10724 10722 10725 10729 10731 10732 10733 10735 10737 10739 10740 10742 10743 10745 10746 10748 10750 10752 10753 10754 10756 10757 10759 10762 10765 10766 10767 10768 10766 10766
10435 10448 10452 10463 10477 10491 10505 10515 10529 10538 10545 10557 10567 10573 10579 10582 10587 10593 10597 10604 10610 10614 10619 10626 10635 10638 10640 10644 10649 10656 10662 10666 10670 10673 10676 10680 10683 10688 10690 10694 10697 10699 10700 10702 10704 10705 10706 10707 10707 10709 10712 10713 10715 10718 10719 10718 10716 10718 10722 10724 10724 10726 10729 10730 10732 10734 10735 10737 10738 10740 10743 10745 10747 10748 10749 10750 10751 10753 10756 10761 10763 10763 10765 10767 10764 10762
10419 10426 10435 10452 10467 10481 10495 10509 10524 10531 10539 10554 10562 10566 10572 10577 10584 10589 10593 10600 10606 10610 10613 10620 10630 10632 10635 10642 10646 10653 10660 10663 10667 10671 10673 10677 10680 10684 10687 10690 10693 10695 10696 10699 10701 10702 10703 10704 10705 10707 10709 10711 10713 10714 10713 10712 10712 10715 10718 10717 10719 10723 10725 10727 10728 10729 10730 10732 10734 10737 10739 10741 10743 10745 10745 10746 10747 10749 10751 10755 10757 10757 10758 10759 10756 10756
10407 10411 10424 10443 10458 10473 10489 10507 10519 10524 10536 10550 10554 10559 10567 10571 10577 10582 10587 10596 10601 10602 10608 10617 10626 10631 10636 10640 10643 10650 10658 10661 10665 10669 10671 10674 10676 10679 10682 10686 10689 10691 10693 10696 10699 10700 10700 10701 10702 10704 10707 10708 10709 10709 10708 10707 10709 10711 10713 10713 10715 10719 10721 10722 10723 10724 10725 10727 10731 10734 10735 10737 10740 10741 10742 10743 10744 10745 10747 10748 10749 10749 10751 10751 10750 10752
10395 10402 10420 10436 10451 10470 10488 10502 10510 10518 10532 10542 10545 10553 10559 10562 10570 10576 10582 10590 10592 10596 10606 10616 10624 10631 10634 10635 10640 10649 10655 10658 10662 10665 10667 10669 10672 10675 10678 10682 10686 10688 10690 10692 10694 10697 10698 10698 10699 10702 10703 10704 10705 10705 10703 10704 10706 10708 10709 10710 10711 10714 10717 10717 10717 10718 10720 10724 10727 10729 10731 10733 10736 10737 10738 10740 10741 10743 10744 10744 10743 10743 10745 10746 10747 10749
10382 10394 10413 10429 10446 10466 10482 10494 10503 10514 10525 10530 10535 10545 10550 10556 10564 10570 10576 10580 10584 10594 10607 10615 10622 10628 10630 10632 10639 10645 10650 10655 10658 10660 10662 10665 10668 10672 10675 10679 10682 10684 10686 10687 10689 10692 10693 10693 10696 10698 10699 10700 10701 10700 10699 10700 10703 10706 10707 10706 10707 10709 10712 10712 10712 10713 10716 10720 10723 10725 10727 10730 10732 10734 10735 10736 10738 10740 10741 10740 10739 10739 10740 10742 10744 10745
10373 10389 10406 10421 10439 10458 10472 10484 10495 10506 10513 10516 10526 10537 10543 10549 10556 10562 10566 10572 10585 10600 10609 10614 10619 10623 10627 10631 10636 10640 10646 10651 10654 10656 10659 10663 10666 10669 10671 10675 10678 10680 10683 10684 10686 10687 10687 10688 10692 10694 10695 10697 10697 10695 10695 10697 10701 10703 10703 10702 10703 10705 10706 10706 10707 10709 10712 10715 10719 10721 10723 10726 10728 10730 10731 10733 10734 10735 10735 10735 10734 10736 10737 10738 10740 10741
10374 10390 10403 10413 10430 10449 10464 10474 10482 10491 10498 10506 10520 10530 10535 10541 10549 10556 10565 10579 10595 10602 10605 10611 10616 10619 10625 10629 10631 10636 10642 10647 10650 10653 10657 10660 10663 10665 10668 10672 10675 10677 10680 10681 10683 10685 10685 10685 10688 10690 10691 10693 10692 10691 10692 10695 10698 10700 10699 10699 10699 10700 10700 10701 10704 10706 10708 10711 10714 10716 10719 10721 10724 10726 10727 10729 10730 10730 10730 10730 10731 10732 10733 10734 10736 10737
10371 10384 10395 10408 10423 10440 10454 10462 10471 10484 10493 10503 10518 10529 10533 10540 10550 10562 10575 10587 10594 10596 10601 10607 10610 10615 10622 10624 10627 10633 10639 10643 10647 10652 10655 10657 10659 10662 10665 10668 10671 10674 10676 10678 10680 10682 10682 10683 10684 10686 10687 10688 10687 10687 10688 10691 10695 10696 10696 10696 10696 10696 10696 10697 10701 10703 10705 10707 10709 10711 10715 10717 10719 10721 10723 10724 10726 10726 10726 10727 10728 10729 10729 10730 10731 10732
10366 10375 10388 10404 10418 10432 10444 10454 10471 10488 10496 10508 10524 10532 10535 10544 10559 10570 10578 10583 10586 10591 10597 10600 10604 10612 10618 10621 10625 10631 10636 10640 10645 10649 10651 10652 10655 10658 10661 10665 10668 10670 10672 10674 10676 10678 10678 10679 10680 10682 10683 10683 10682 10683 10685 10687 10691 10692 10692 10693 10693 10693 10692 10693 10697 10700 10701 10703 10704 10706 10709 10712 10714 10716 10718 10721 10722 10722 10722 10723 10724 10725 10725 10726 10727 10727
10362 10374 10387 10401 10413 10427 10440 10454 10472 10483 10491 10506 10521 10524 10528 10541 10554 10559 10563 10570 10578 10584 10589 10594 10604 10612 10615 10618 10623 10628 10635 10638 10640 10644 10647 10649 10652 10654 10657 10662 10664 10666 10669 10671 10673 10674 10675 10676 10677 10678 10678 10678 10678 10679 10681 10684 10687 10688 10689 10690 10690 10688 10688 10690 10693 10696 10697 10698 10699 10700 10703 10706 10709 10711 10714 10716 10718 10718 10718 10719 10720 10720 10721 10721 10722 10722
10361 10372 10384 10394 10404 10420 10436 10454 10470 10477 10487 10503 10511 10516 10526 10537 10543 10547 10554 10565 10573 10579 10586 10595 10603 10608 10611 10615 10619 10626 10632 10630 10632 10639 10644 10647 10649 10651 10655 10658 10660 10663 10666 10668 10670 10672 10673 10674 10674 10674 10674 10674 10674 10676 10678 10680 10682 10684 10685 10686 10686 10684 10684 10686 10689 10691 10692 10692 10694 10696 10699 10702 10704 10706 10709 10711 10713 10714 10714 10714 10715 10717 10717 10717 10717 10717
10358 10368 10381 10391 10404 10419 10432 10448 10462 10471 10484 10498 10506 10514 10522 10526 10533 10542 10552 10562 10570 10576 10584 10593 10599 10603 10607 10611 10616 10622 10623 10622 10627 10637 10641 10644 10647 10649 10651 10654 10657 10660 10663 10665 10668 10671 10672 10671 10671 10671 10671 10671 10672 10673 10674 10676 10678 10680 10681 10682 10681 10680 10681 10683 10685 10685 10686 10687 10690 10692 10695 10696 10698 10701 10704 10705 10707 10708 10709 10709 10711 10712 10712 10712 10713 10713
10351 10362 10375 10387 10403 10419 10430 10441 10451 10461 10476 10490 10499 10506 10510 10518 10531 10543 10552 10562 10569 10575 10583 10592 10595 10598 10603 10608 10613 10616 10616 10619 10626 10633 10638 10641 10644 10646 10647 10650 10654 10657 10660 10664 10667 10669 10669 10668 10668 10668 10668 10669 10670 10671 10672 10673 10675 10677 10677 10677 10676 10676 10678 10679 10680 10680 10680 10683 10686 10688 10689 10691 10692 10695 10698 10700 10702 10703 10703 10705 10706 10708 10708 10708 10708 10708
10350 10361 10371 10382 10399 10413 10423 10435 10446 10457 10471 10480 10486 10493 10502 10515 10531 10542 10554 10564 10569 10574 10583 10589 10590 10593 10599 10605 10609 10610 10612 10618 10624 10629 10634 10638 10640 10642 10644 10648 10652 10654 10658 10662 10664 10665 10665 10665 10665 10665 10665 10666 10667 10668 10669 10670 10671 10673 10674 10673 10672 10673 10675 10675 10676 10675 10675 10678 10681 10682 10683 10685 10687 10690 10692 10694 10696 10697 10699 10700 10701 10703 10704 10704 10704 10704
10349 10360 10369 10380 10392 10402 10414 10432 10449 10462 10471 10478 10485 10494 10503 10516 10530 10540 10550 10556 10563 10571 10578 10583 10587 10591 10595 10601 10605 10606 10607 10614 10620 10625 10630 10634 10636 10639 10642 10646 10649 10652 10656 10659 10660 10661 10661 10661 10662 10662 10663 10663 10664 10665 10666 10666 10668 10669 10669 10668 10668 10670 10671 10672 10670 10668 10670 10674 10676 10676 10678 10681 10684 10687 10688 10689 10691 10692 10695 10696 10697 10699 10700 10699 10699 10699
10350 10359 10367 10377 10387 10398 10416 10437 10451 10460 10470 10481 10492 10499 10508 10521 10531 10538 10545 10552 10560 10566 10571 10578 10583 10585 10589 10597 10601 10601 10602 10609 10616 10621 10626 10630 10633 10636 10640 10644 10646 10648 10653 10655 10656 10657 10657 10658 10658 10659 10660 10660 10661 10662 10663 10663 10665 10665 10665 10664 10665 10667 10668 10667 10663 10662 10669 10673 10672 10672 10674 10677 10680 10682 10683 10685 10686 10688 10690 10691 10694 10695 10695 10695 10695 10694
10354 10362 10369 10380 10392 10407 10420 10431 10441 10451 10463 10475 10483 10491 10504 10518 10527 10535 10543 10551 10557 10561 10567 10574 10576 10578 10586 10594 10597 10596 10598 10606 10615 10619 10624 10627 10630 10634 10637 10640 10642 10645 10648 10650 10652 10653 10653 10654 10655 10655 10656 10657 10658 10659 10660 10661 10661 10661 10661 10661 10662 10663 10664 10662 10659 10662 10669 10671 10668 10668 10670 10673 10675 10677 10679 10680 10681 10683 10686 10687 10690 10690 10689 10690 10690 10689
10352 10362 10372 10383 10392 10403 10413 10422 10433 10442 10452 10463 10473 10486 10502 10515 10524 10532 10538 10545 10552 10558 10565 10569 10571 10577 10586 10590 10592 10594 10596 10605 10613 10617 10620 10624 10628 10631 10634 10636 10638 10641 10644 10647 10648 10649 10649 10650 10651 10651 10652 10654 10655 10657 10658 10658 10658 10658 10658 10657 10658 10659 10659 10659 10659 10662 10666 10666 10665 10665 10666 10668 10670 10672 10674 10675 10676 10679 10681 10682 10684 10685 10685 10686 10686 10684
10348 10359 10370 10377 10382 10388 10397 10408 10419 10431 10446 10462 10476 10491 10504 10512 10519 10526 10532 10542 10549 10555 10562 10566 10570 10577 10582 10584 10588 10590 10594 10602 10609 10612 10617 10621 10624 10627 10630 10633 10635 10637 10640 10643 10644 10645 10646 10646 10647 10648 10649 10651 10652 10654 10655 10655 10655 10655 10655 10654 10655 10655 10656 10657 10659 10660 10661 10661 10661 10662 10663 10664 10665 10667 10669 10671 10672 10675 10676 10677 10680 10681 10681 10681 10681 10679
10346 10355 10362 10369 10376 10385 10395 10408 10424 10441 10458 10471 10481 10493 10502 10509 10516 10524 10533 10542 10546 10553 10560 10562 10566 10573 10574 10577 10583 10586 10590 10598 10604 10609 10614 10617 10621 10624 10627 10629 10631 10634 10637 10639 10640 10641 10642 10642 10643 10645 10646 10648 10649 10651 10652 10652 10652 10652 10652 10652 10651 10652 10654 10655 10656 10657 10657 10657 10658 10659 10661 10662 10663 10664 10666 10667 10668 10669 10671 10673 10675 10676 10676 10676 10676 10675
10347 10353 10360 10371 10386 10402 10416 10431 10446 10458 10469 10478 10486 10494 10500 10508 10515 10521 10530 10537 10544 10552 10555 10555 10562 10568 10568 10572 10578 10582 10587 10594 10600 10607 10611 10613 10617 10621 10623 10625 10627 10630 10633 10635 10636 10637 10638 10639 10640 10642 10643 10645 10646 10648 10649 10649 10650 10650 10650 10649 10648 10649 10651 10652 10653 10653 10654 10655 10656 10657 10657 10658 10659 10661 10663 10664 10665 10666 10668 10669 10670 10671 10670 10671 10672 10673
10349 10355 10364 10377 10392 10406 10418 10430 10440 10452 10463 10473 10482 10490 10497 10504 10510 10516 10526 10534 10541 10547 10547 10551 10560 10563 10562 10569 10575 10578 10585 10591 10597 10603 10607 10610 10614 10617 10619 10621 10624 10627 10630 10631 10632 10633 10634 10635 10637 10639 10640 10642 10643 10645 10646 10646 10647 10648 10647 10646 10646 10646 10648 10649 10649 10650 10651 10652 10653 10653 10653 10653 10655 10657 10659 10660 10661 10663 10666 10665 10664 10665 10666 10667 10669 10670
10354 10362 10372 10383 10392 10400 10408 10420 10432 10445 10455 10463 10473 10482 10491 10499 10507 10516 10525 10531 10535 10537 10540 10547 10554 10555 10558 10566 10571 10577 10584 10589 10595 10600 10603 10606 10610 10612 10615 10618 10621 10624 10625 10626 10628 10629 10630 10632 10634 10636 10637 10639 10641 10642 10643 10644 10644 10644 10644 10643 10643 10644 10645 10646 10646 10646 10648 10649 10648 10648 10648 10649 10651 10653 10655 10656 10657 10659 10661 10660 10660 10662 10663 10664 10665 10666
10357 10367 10377 10386 10393 10398 10406 10417 10429 10439 10449 10459 10469 10478 10486 10495 10504 10513 10520 10524 10528 10531 10535 10541 10548 10552 10556 10562 10569 10576 10582 10586 10592 10596 10599 10602 10605 10608 10611 10614 10617 10619 10621 10622 10624 10625 10627 10629 10631 10633 10635 10636 10638 10639 10640 10641 10641 10641 10640 10640 10641 10641 10642 10642 10641 10642 10644 10644 10644 10644 10644 10645 10647 10649 10651 10652 10653 10654 10655 10656 10657 10658 10659 10659 10660 10661
10357 10366 10377 10386 10394 10402 10411 10421 10431 10440 10449 10458 10466 10474 10483 10493 10501 10509 10516 10522 10526 10530 10535 10541 10548 10551 10554 10560 10568 10574 10578 10583 10588 10591 10595 10598 10601 10605 10608 10610 10613 10615 10616 10618 10620 10622 10624 10626 10628 10630 10632 10633 10635 10636 10637 10637 10637 10637 10637 10637 10638 10638 10638 10637 10638 10639 10640 10640 10641 10641 10641 10642 10644 10645 10647 10648 10648 10649 10650 10651 10653 10654 10654 10655 10656 10658
10358 10368 10378 10386 10394 10404 10416 10426 10435 10442 10449 10456 10464 10473 10483 10492 10500 10509 10517 10521 10523 10526 10530 10537 10544 10547 10550 10557 10565 10570 10574 10579 10584 10587 10591 10594 10597 10601 10603 10606 10608 10610 10612 10613 10615 10618 10620 10622 10625 10627 10628 10630 10632 10633 10633 10633 10633 10633 10633 10634 10635 10634 10634 10634 10634 10635 10636 10637 10637 10637 10638 10638 10639 10641 10642 10642 10643 10644 10645 10647 10648 10649 10649 10650 10652 10653
10361 10371 10378 10385 10394 10403 10414 10424 10433 10441 10448 10455 10464 10473 10481 10489 10496 10503 10509 10511 10514 10518 10524 10533 10539 10541 10546 10554 10561 10566 10571 10575 10580 10584 10587 10590 10594 10597 10599 10602 10604 10605 10608 10610 10612 10615 10617 10619 10622 10624 10626 10627 10628 10629 10629 10629 10629 10629 10631 10631 10631 10631 10631 10631 10631 10632 10633 10634 10634 10634 10634 10635 10635 10636 10637 10638 10639 10640 10641 10642 10643 10644 10645 10646 10647 10647
10364 10372 10378 10385 10394 10403 10411 10420 10429 10439 10449 10459 10467 10474 10481 10487 10494 10499 10502 10504 10509 10515 10523 10531 10535 10538 10544 10552 10557 10563 10568 10572 10576 10580 10583 10587 10590 10592 10595 10598 10599 10601 10604 10607 10610 10613 10615 10616 10619 10621 10623 10624 10625 10625 10625 10624 10625 10627 10628 10628 10628 10628 10628 10628 10628 10629 10630 10630 10631 10631 10632 10632 10633 10633 10633 10634 10635 10636 10637 10638 10639 10640 10641 10641 10642 10642
10365 10371 10378 10385 10393 10401 10409 10417 10427 10438 10450 10460 10467 10473 10479 10484 10488 10491 10494 10499 10505 10511 10518 10525 10529 10535 10542 10549 10555 10560 10564 10569 10574 10577 10580 10583 10586 10589 10591 10593 10595 10598 10602 10605 10608 10609 10611 10613 10616 10618 10619 10621 10621 10621 10620 10621 10623 10624 10625 10625 10625 10625 10625 10625 10625 10625 10626 10627 10627 10628 10628 10629 10629 10630 10630 10631 10632 10633 10633 10634 10635 10636 10636 10636 10637 10638
10367 10372 10379 10386 10393 10401 10409 10419 10430 10441 10450 10456 10462 10470 10477 10481 10485 10487 10490 10495 10501 10507 10514 10521 10526 10532 10539 10545 10551 10557 10561 10567 10572 10574 10577 10580 10583 10585 10588 10589 10592 10596 10599 10602 10604 10606 10608 10610 10612 10614 10616 10617 10616 10616 10617 10619 10620 10621 10622 10622 10622 10622 10622 10622 10622 10622 10622 10622 10623 10624 10624 10625 10625 10626 10626 10627 10628 10628 10629 10630 10631 10632 10632 10633 10633 10634
10369 10375 10381 10389 10398 10407 10415 10425 10434 10440 10444 10450 10458 10466 10472 10477 10482 10486 10491 10497 10502 10509 10516 10522 10526 10531 10536 10542 10548 10553 10559 10565 10570 10572 10575 10578 10580 10583 10584 10586 10590 10593 10596 10598 10600 10603 10605 10606 10608 10611 10612 10612 10612 10613 10614 10615 10616 10617 10618 10619 10619 10619 10619 10619 10619 10619 10618 10619 10619 10620 10620 10621 10621 10622 10623 10623 10624 10625 10626 10627 10628 10629 10629 10629 10629 10630
10371 10378 10385 10394 10403 10410 10417 10425 10430 10433 10440 10449 10457 10464 10470 10475 10480 10486 10493 10499 10504 10510 10516 10519 10523 10528 10533 10539 10545 10551 10557 10564 10569 10573 10575 10576 10578 10579 10581 10584 10587 10590 10592 10594 10597 10599 10601 10603 10605 10606 10606 10607 10608 10609 10611 10612 10613 10614 10614 10615 10615 10615 10615 10616 10616 10615 10615 10616 10616 10616 10616 10617 10617 10618 10618 10619 10620 10621 10622 10623 10624 10625 10625 10625 10625 10625
10375 10382 10389 10396 10403 10408 10414 10419 10426 10434 10445 10453 10459 10463 10468 10472 10477 10483 10490 10495 10500 10506 10512 10516 10521 10526 10532 10538 10544 10550 10556 10561 10565 10570 10574 10573 10573 10574 10577 10580 10583 10585 10588 10591 10593 10595 10598 10599 10600 10600 10601 10602 10604 10606 10608 10609 10610 10611 10611 10610 10610 10611 10612 10612 10612 10612 10612 10612 10613 10613 10613 10613 10613 10614 10614 10615 10616 10617 10618 10619 10620 10620 10620 10620 10620 10619
10377 10383 10389 10396 10402 10407 10414 10420 10429 10438 10447 10452 10456 10460 10463 10467 10473 10480 10486 10491 10497 10504 10509 10514 10519 10524 10530 10536 10543 10549 10553 10554 10557 10562 10566 10566 10567 10569 10572 10575 10578 10581 10584 10587 10589 10592 10594 10595 10595 10595 10597 10599 10600 10602 10605 10606 10607 10607 10606 10605 10606 10607 10608 10608 10608 10607 10608 10609 10609 10609 10609 10609 10610 10610 10610 10611 10612 10612 10613 10614 10614 10614 10614 10614 10614 10614
10377 10383 10389 10396 10401 10407 10414 10422 10429 10436 10441 10445 10450 10454 10460 10466 10473 10480 10486 10491 10496 10501 10505 10510 10515 10521 10528 10535 10540 10543 10544 10546 10549 10554 10558 10561 10563 10564 10567 10570 10574 10577 10580 10582 10585 10588 10590 10589 10590 10591 10593 10595 10597 10599 10601 10602 10603 10602 10602 10602 10602 10603 10604 10604 10604 10603 10604 10605 10605 10605 10605 10606 10606 10606 10607 10607 10607 10608 10608 10608 10608 10608 10609 10609 10609 10609
10379 10385 10391 10397 10403 10409 10415 10421 10426 10430 10435 10440 10445 10451 10458 10465 10473 10479 10483 10487 10492 10497 10502 10507 10512 10519 10528 10533 10534 10535 10537 10540 10544 10549 10554 10557 10559 10560 10564 10567 10570 10572 10575 10578 10581 10583 10584 10584 10585 10587 10589 10591 10593 10595 10596 10597 10598 10598 10598 10598 10599 10600 10601 10601 10600 10600 10600 10600 10601 10601 10601 10602 10602 10603 10603 10602 10603 10602 10602 10603 10603 10603 10603 10603 10603 10603
10380 10387 10393 10398 10404 10411 10416 10419 10423 10428 10433 10439 10445 10452 10459 10467 10473 10477 10479 10484 10489 10494 10499 10504 10510 10518 10526 10528 10527 10528 10532 10537 10541 10546 10550 10552 10554 10557 10560 10562 10565 10567 10570 10573 10576 10578 10579 10579 10580 10582 10584 10586 10588 10590 10591 10592 10593 10593 10594 10595 10596 10596 10597 10597 10596 10596 10596 10596 10596 10596 10597 10597 10598 10598 10598 10598 10598 10597 10597 10598 10598 10598 10598 10598 10598 10598
10380 10387 10393 10399 10406 10411 10415 10419 10425 10431 10436 10442 10447 10454 10460 10466 10470 10472 10476 10482 10488 10492 10497 10503 10509 10516 10521 10520 10520 10523 10528 10532 10537 10541 10544 10546 10549 10552 10555 10557 10560 10563 10566 10569 10571 10573 10573 10574 10575 10577 10579 10581 10583 10585 10586 10587 10588 10589 10590 10591 10591 10592 10592 10592 10592 10591 10591 10591 10591 10592 10592 10592 10593 10593 10593 10593 10593 10592 10593 10593 10593 10593 10593 10593 10594 10593
10380 10386 10392 10399 10406 10411 10416 10422 10429 10434 10438 10442 10446 10451 10456 10460 10463 10468 10473 10479 10484 10488 10493 10498 10504 10511 10515 10514 10514 10519 10524 10528 10532 10536 10538 10542 10544 10547 10549 10553 10556 10558 10561 10564 10566 10567 10567 10568 10570 10572 10574 10576 10578 10580 10581 10582 10583 10584 10585 10586 10587 10587 10587 10587 10587 10587 10587 10587 10587 10587 10587 10587 10588 10588 10588 10588 10587 10587 10588 10588 10588 10588 10588 10588 10588 10588
10381 10387 10394 10399 10404 10410 10416 10423 10428 10432 10435 10439 10444 10448 10452 10456 10460 10465 10470 10474 10479 10484 10488 10492 10498 10505 10510 10510 10511 10514 10519 10523 10526 10530 10533 10537 10539 10542 10545 10548 10551 10553 10555 10558 10560 10560 10561 10563 10564 10567 10569 10571 10573 10575 10576 10577 10578 10579 10580 10581 10581 10582 10582 10582 10583 10583 10583 10583 10583 10582 10582 10583 10583 10583 10583 10583 10583 10583 10582 10582 10583 10583 10583 10583 10583 10583
10383 10390 10396 10400 10404 10409 10416 10422 10425 10428 10431 10436 10441 10444 10449 10453 10458 10463 10467 10471 10476 10480 10484 10488 10493 10500 10505 10507 10507 10509 10513 10517 10521 10524 10528 10531 10533 10536 10540 10543 10545 10547 10549 10552 10554 10555 10556 10557 10560 10562 10564 10566 10568 10570 10571 10572 10573 10574 10575 10575 10576 10577 10577 10577 10578 10578 10578 10578 10578 10578 10578 10578 10578 10578 10579 10578 10578 10578 10577 10577 10577 10577 10577 10577 10577 10577
10384 10389 10395 10400 10404 10409 10415 10420 10424 10427 10430 10434 10438 10442 10447 10451 10456 10460 10464 10468 10473 10477 10481 10485 10489 10494 10499 10502 10502 10504 10508 10512 10516 10519 10523 10525 10528 10531 10534 10537 10539 10541 10544 10546 10548 10550 10551 10553 10555 10557 10559 10561 10563 10565 10566 10567 10569 10569 10570 10570 10571 10572 10572 10572 10572 10573 10573 10573 10573 10573 10573 10573 10574 10574 10574 10573 10573 10573 10572 10572 10571 10571 10572 10572 10572 10572
10384 10390 10395 10400 10404 10408 10413 10417 10421 10424 10428 10432 10436 10440 10445 10449 10453 10456 10460 10464 10469 10473 10477 10480 10484 10488 10492 10495 10498 10501 10504 10507 10510 10514 10517 10520 10523 10526 10529 10532 10534 10537 10539 10541 10543 10545 10547 10548 10550 10552 10554 10555 10557 10559 10561 10562 10563 10565 10565 10565 10566 10566 10567 10567 10568 10568 10568 10568 10568 10568 10568 10569 10569 10569 10568 10568 10568 10567 10567 10566 10566 10566 10566 10566 10566 10566
10384 10389 10394 10398 10402 10406 10411 10414 10417 10420 10424 10428 10432 10436 10441 10445 10449 10453 10456 10460 10464 10468 10472 10476 10480 10483 10486 10489 10493 10497 10500 10502 10505 10508 10511 10515 10518 10521 10524 10527 10529 10532 10534 10536 10538 10540 10541 10542 10544 10546 10548 10549 10551 10553 10555 10556 10558 10559 10560 10560 10560 10561 10562 10562 10562 10562 10562 10562 10562 10562 10563 10563 10563 10563 10563 10562 10562 10561 10561 10561 10561 10561 10561 10561 10561 10561
10385 10390 10394 10397 10401 10405 10410 10413 10415 10418 10421 10424 10428 10431 10435 10439 10444 10447 10452 10456 10460 10464 10468 10472 10475 10478 10481 10485 10488 10492 10495 10498 10500 10504 10507 10510 10514 10516 10519 10521 10524 10526 10529 10531 10533 10534 10535 10536 10538 10540 10542 10544 10545 10547 10549 10551 10552 10553 10554 10555 10556 10556 10556 10556 10557 10557 10557 10557 10557 10557 10557 10558 10558 10557 10557 10556 10556 10555 10555 10555 10555 10555 10555 10555 10555 10555